Location: Helsinki
(60.1699°N, 24.9384°E)
Time: 11:10:34
(UTC+02:00)

Transit 2A Rocket - Pass Details

Date: 27 September 2023
Orbit: 593 x 903 km, 66.7° (Epoch: 06 December)

Event Time Altitude Azimuth Distance (km) Brightness Sun altitude
Rises 15:45:27 0° 203° (SSW) 3,296 9.6 21.3°
Reaches altitude 10° 15:48:03 10° 198° (SSW) 2,319 8.9 21.1°
Maximum altitude 15:53:02 44° 127° (SE) 1,010 5.8 20.7°
Drops below altitude 10° 15:57:37 10° 57° (ENE) 2,137 6.8 20.3°
Sets 15:59:55 0° 51° (NE) 3,010 7.5 20.1°
